Weather History for McCook, NE

Change the Weather History Date:

Friday, September 19, 2014

  Actual Average Record
Temperature  
Mean Temperature 73 °F 63 °F  
Max Temperature 93 °F 78 °F 99 °F (1972)
Min Temperature 53 °F 48 °F 31 °F (2003)
Cooling Degree Days 8    
Growing Degree Days 23 (Base 50)    
Moisture  
Dew Point 57 °F    
Average Humidity 77    
Maximum Humidity 100    
Minimum Humidity 29    
Precipitation  
Precipitation 0.00 in 0.05 in 1.02 in (1967)
Month to date precipitation 1.11 0.92  
Year to date precipitation 22.06 18.63  
Sea Level Pressure  
Sea Level Pressure 29.84 in    
Wind  
Wind Speed 6 mph (SSE)    
Max Wind Speed 22 mph    
Max Gust Speed 31 mph    
Visibility 5 miles    
Events Fog    
T = Trace of Precipitation, MM = Missing Value Source: NWS Daily Summary

Daily Weather History Graph

Daily Weather History Graph

Search for Another Location

Airport:

Trip Planner

Search our weather history database for the weather conditions in past years. The results will help you decide how hot, cold, wet, or windy it might be!

Date:

Astronomy

Sep. 19, 2014 Rise Set
Actual Time 7:27 AM CDT 7:44 PM CDT
Civil Twilight 6:59 AM CDT 8:11 PM CDT
Nautical Twilight 6:28 AM CDT 8:43 PM CDT
Astronomical Twilight 5:55 AM CDT 9:15 PM CDT
Moon 3:13 AM CDT (9/19) 5:14 PM CDT (9/19)
Length of Visible Light 13h 11m
Length of Day
12h 17m
Waning Crescent, 18% of the Moon is Illuminated
Sep 19
Waning Crescent
Sep 24
New
Oct 1
First Quarter
Oct 8
Full
Oct 15
Last Quarter

Hourly Weather History & Observations

Time (CDT) Temp. Heat Index Dew Point Humidity Pressure Visibility Wind Dir Wind Speed Gust Speed Precip Events Conditions
12:53 AM 57.0 °F - 57.0 °F 100% 29.86 in 0.2 mi ENE 5.8 mph - N/A Fog Fog
1:53 AM 59.0 °F - 57.9 °F 96% 29.85 in 0.2 mi East 6.9 mph - N/A Fog Fog
2:53 AM 57.9 °F - 57.9 °F 100% 29.85 in 0.2 mi ENE 3.5 mph - N/A Fog Fog
3:12 AM 57.9 °F - 57.0 °F 97% 29.88 in 1.0 mi Calm Calm - N/A   Clear
3:20 AM 55.9 °F - 55.9 °F 100% 29.88 in 0.8 mi NNE 3.5 mph - N/A   Clear
3:26 AM 55.9 °F - 55.9 °F 100% 29.88 in 2.0 mi NNE 3.5 mph - N/A   Clear
3:34 AM 55.9 °F - 55.0 °F 97% 29.88 in 4.0 mi North 3.5 mph - N/A   Clear
3:53 AM 55.0 °F - 55.0 °F 100% 29.84 in 4.0 mi ENE 3.5 mph - N/A   Clear
4:53 AM 55.0 °F - 54.0 °F 96% 29.84 in 5.0 mi East 4.6 mph - N/A   Clear
5:23 AM 55.9 °F - 55.0 °F 97% 29.88 in 1.8 mi Calm Calm - N/A   Clear
5:35 AM 55.9 °F - 55.9 °F 100% 29.88 in 2.5 mi Calm Calm - N/A   Clear
5:43 AM 55.9 °F - 55.9 °F 100% 29.88 in 1.2 mi Calm Calm - N/A   Clear
5:51 AM 55.4 °F - 55.4 °F 100% 29.88 in 0.5 mi Calm Calm - N/A Fog Fog
5:53 AM 55.9 °F - 55.0 °F 97% 29.84 in 0.5 mi Calm Calm - N/A Fog Fog
6:28 AM 54.0 °F - 54.0 °F 100% 29.89 in 2.0 mi East 4.6 mph - N/A   Clear
6:36 AM 54.0 °F - 54.0 °F 100% 29.89 in 4.0 mi ENE 3.5 mph - N/A   Clear
6:43 AM 54.0 °F - 54.0 °F 100% 29.89 in 1.8 mi East 3.5 mph - N/A   Clear
6:53 AM 54.0 °F - 54.0 °F 100% 29.86 in 0.5 mi East 3.5 mph - N/A Fog Fog
7:41 AM 53.1 °F - 53.1 °F 100% 29.90 in 1.2 mi Calm Calm - N/A   Partly Cloudy
7:51 AM 53.6 °F - 53.6 °F 100% 29.90 in 2.0 mi Calm Calm - N/A   Clear
7:53 AM 53.6 °F - 53.6 °F 100% 29.90 in 1.8 mi Calm Calm - N/A   Clear
8:00 AM 53.1 °F - 53.1 °F 100% 29.90 in 3.0 mi ESE 3.5 mph - N/A   Clear
8:53 AM 61.0 °F - 60.1 °F 97% 29.87 in 9.0 mi Calm Calm - N/A   Clear
9:53 AM 69.1 °F - 64.0 °F 84% 29.85 in 10.0 mi South 4.6 mph - N/A   Clear
10:53 AM 79.0 °F - 63.0 °F 58% 29.84 in 10.0 mi SW 8.1 mph - N/A   Clear
11:53 AM 87.1 °F 86.7 °F 60.1 °F 40% 29.82 in 10.0 mi SW 15.0 mph - N/A   Clear
12:53 PM 91.0 °F 90.0 °F 57.9 °F 33% 29.81 in 10.0 mi SW 18.4 mph 25.3 mph N/A   Clear
1:53 PM 91.9 °F 90.0 °F 55.0 °F 29% 29.80 in 10.0 mi SSW 21.9 mph 27.6 mph N/A   Clear
2:53 PM 93.0 °F 91.4 °F 55.9 °F 29% 29.77 in 10.0 mi SSW 21.9 mph 26.5 mph N/A   Clear
3:53 PM 91.9 °F 90.3 °F 55.9 °F 30% 29.75 in 10.0 mi SSW 20.7 mph 31.1 mph N/A   Clear
4:53 PM 91.9 °F 90.6 °F 57.0 °F 31% 29.74 in 10.0 mi South 19.6 mph 27.6 mph N/A   Clear
5:53 PM 91.0 °F 90.0 °F 57.9 °F 33% 29.75 in 10.0 mi SSW 18.4 mph 24.2 mph N/A   Clear
6:53 PM 88.0 °F 87.6 °F 60.1 °F 39% 29.75 in 10.0 mi South 11.5 mph - N/A   Clear
7:53 PM 82.9 °F 83.2 °F 60.1 °F 46% 29.77 in 10.0 mi South 15.0 mph - N/A   Clear
8:53 PM 78.8 °F - 59.0 °F 51% 29.84 in 10.0 mi South 13.8 mph - N/A   Clear
9:53 PM 78.1 °F - 59.0 °F 52% 29.79 in 10.0 mi South 11.5 mph - N/A   Clear
10:53 PM 75.0 °F - 57.9 °F 55% 29.81 in 10.0 mi South 10.4 mph - N/A   Clear
11:53 PM 73.9 °F - 57.9 °F 57% 29.80 in 10.0 mi South 9.2 mph - N/A   Clear